#timestamp,LO_Frequency,Hit,StdDev 
1456873215.7,286047003.4,N
1456873235.6,286047001.3,N
1456873255.4,286047004.3,N
1456873275.2,286047002.0,N
1456873295.1,286047000.8,N
1456873296.0,286047000.8,N
1456873315.8,286047002.0,N
1456873335.7,286047004.4,N
1456873355.5,286047003.5,N
1456873375.3,286047005.6,N
1456873395.2,286047005.5,N
1456873415.9,286047005.2,N
1456873435.7,286047003.2,N
1456873455.6,286047003.9,N
1456873475.4,286047001.7,N
1456873495.2,286047002.2,N
1456873515.1,286046999.9,N
1456873516.0,286046999.9,N
1456873535.8,286047000.4,N
1456873555.7,286046998.4,N
1456873575.5,286046998.8,N
1456873595.3,286047000.2,N
1456873615.2,286046998.5,N
1456873635.0,286046998.8,N
1456873635.9,286046998.8,N
1456873655.8,286046997.1,N
1456873675.6,286046996.9,N
1456873695.4,286046999.5,N
1456873715.3,286046999.0,N
1456873735.1,286046999.3,N
1456873755.8,286046996.6,N
1456873775.7,286046997.8,N
1456873795.5,286046997.9,N
1456873815.4,286046995.0,N
1456873835.2,286046999.5,N
1456873855.0,286046996.7,N
1456873855.9,286046996.7,N
1456873875.8,286046997.7,N
1456873895.6,286046996.6,N
1456873915.4,286046999.3,N
1456873935.3,286046999.0,N
1456873955.1,286046998.2,N
1456873975.9,286046998.1,N
1456873995.7,286046998.1,N
1456874015.5,286047000.5,N
1456874035.4,286047000.4,N
1456874055.2,286046998.7,N
1456874075.0,286046997.9,N
1456874075.9,286046997.9,N
1456874095.8,286046998.4,N
1456874115.6,286047000.3,N
1456874135.5,286046998.3,N
1456874155.3,286046997.1,N
1456874175.1,286046997.7,N
1456874195.9,286046997.2,N
1456874245.7,286046997.5,E
1456874255.7,286046996.6,N
1456874275.5,286046998.7,P
1456874295.3,286046999.2,N
1456874315.2,286046998.8,N
1456874335.9,286046998.3,N
1456874355.7,286046998.4,N
1456874375.6,286046997.4,Y
1456874395.4,286046999.6,P
1456874415.3,286046998.7,N
1456874435.1,286046999.3,N
1456874436.0,286046999.3,N
1456874455.8,286046998.4,Y
1456874475.7,286046998.8,P
1456874495.5,286046998.8,P
1456874515.3,286046997.5,P
1456874535.2,286046999.2,N
1456874555.0,286046998.1,Y
1456874555.9,286046998.1,P
1456874575.8,286047004.4,P
1456874595.6,286047004.8,N
1456874615.4,286047003.9,N
1456874635.3,286047002.5,N
1456874655.1,286047004.4,N
1456874675.8,286047005.4,N
1456874695.7,286047003.2,N
1456874715.5,286047003.3,N
1456874735.4,286047004.3,N
1456874755.2,286047002.7,N
1456874775.0,286047000.0,N
1456874775.9,286047000.0,N
1456874795.8,286047000.6,N
1456874815.6,286047000.7,N
1456874835.4,286046998.7,N
1456874855.3,286046996.7,N
1456874875.1,286046999.1,N
1456874895.9,286046998.8,N
1456874915.7,286046998.5,N
1456874935.5,286047000.2,N
1456874955.4,286047000.1,N
1456874975.2,286047000.9,N
1456874995.0,286047002.7,N
1456874995.9,286047002.7,N
1456875015.8,286046998.6,N
1456875035.6,286046999.5,N
1456875055.5,286046999.6,N
1456875075.3,286046997.9,N
1456875095.1,286046994.9,N
1456875115.9,286046994.1,N
1456875135.7,286046994.0,N
1456875155.5,286046992.1,N
1456875175.4,286046994.3,N
1456875195.2,286046995.2,N
1456875215.1,286046995.0,N
1456875216.0,286046995.0,N
1456875235.8,286046997.6,N
1456875255.6,286046998.0,N
1456875275.5,286046995.6,N
1456875295.3,286046993.9,N
1456875315.1,286046993.9,N
1456875335.9,286046992.1,N
1456875355.7,286046991.7,N
1456875375.6,286046992.8,N
1456875395.4,286046990.6,Y
1456875415.2,286046993.3,P
1456875435.1,286046992.3,P
1456875436.0,286046992.3,P
1456875455.8,286046992.0,Y
1456875475.7,286046999.4,P
1456875495.5,286046999.1,N
1456875515.3,286046999.3,N
1456875535.2,286046997.0,N
1456875555.9,286046999.6,N
1456875575.7,286046999.3,N
1456875595.6,286047000.8,N
1456875615.4,286047001.1,N
1456875635.2,286046998.3,N
1456875655.1,286047001.1,N
1456875656.0,286047001.1,N
1456875675.8,286046998.1,N
1456875695.7,286047000.0,N
1456875715.5,286047002.7,N
1456875735.3,286047000.2,N
1456875755.2,286047001.2,N
1456875775.0,286047000.9,N
1456875775.9,286047000.9,N
1456875795.7,286046998.3,N
1456875815.6,286046996.7,N
1456875835.4,286046998.8,N
1456875855.3,286047000.5,N
1456875875.1,286046998.5,N
1456875876.0,286046998.5,N
1456875895.8,286046997.9,N
1456875915.7,286046997.5,N
1456875935.5,286046995.0,N
1456875955.3,286047011.9,Y
1456875975.2,286046996.6,P
1456875995.0,286046998.9,N
1456875995.9,286046998.9,N
1456876015.8,286047000.9,N
1456876035.6,286046999.7,N
1456876055.4,286047004.1,Y
1456876075.3,286047004.0,P
1456876095.1,286047002.8,N
1456876115.8,286047000.5,N
1456876135.7,286047002.7,N
1456876155.5,286046999.8,N
1456876175.4,286047000.3,N
1456876195.2,286047000.7,N
1456876215.0,286046996.8,N
1456876215.9,286046996.8,N
1456876235.8,286046997.1,N
1456876255.6,286046997.0,N
1456876275.5,286046996.7,N
1456876295.3,286046997.8,N
1456876315.1,286046997.9,N
1456876335.9,286046995.8,N
1456876355.7,286046996.0,N
1456876375.5,286046996.0,N
1456876395.4,286046997.8,N
1456876415.2,286046996.7,N
1456876435.0,286046996.8,N
1456876436.0,286046996.8,N
1456876455.8,286046996.9,N
1456876475.6,286046999.4,N
1456876495.5,286046998.4,N
1456876515.3,286046999.6,N
1456876535.1,286046997.2,N
1456876555.9,286046997.9,N
1456876575.7,286046998.0,N
1456876595.5,286046996.8,N
1456876615.4,286046997.6,N
1456876635.2,286046997.5,N
1456876655.1,286046995.6,N
1456876656.0,286046995.6,N
1456876675.8,286046994.9,Y
1456876695.6,286047001.1,P
1456876715.5,286047001.2,N
1456876735.3,286047000.7,N
1456876755.1,286047000.5,N
1456876775.9,286047000.8,N
1456876795.7,286046998.3,N
